COSMOS 252 DEB *, 3901

Orbit data source: Space-Track

COSMOS 252 DEB *, 3901 is space debris in LEO originally from a launch on Fri, 01 Nov 1968 UTC launched from the Tyuratam Missile And Space Complex (TTMTR). Debris objects in space refer to the collection of defunct objects orbiting the Earth. Examples of debris include non-operational satellites, rocket bodies, and fragments generated from explosions, collisions, or faulty payload assembly.

Loading next visibility...
Identifier
3901, 1968-097BN
Orbit
LEO
Country
Flag of CISCIS
Related business
Manufacturer
Unknown
Mission
Spacecraft
Bus & Motor
Unknown
Mass
Unknown
Launch date (UTC)
1968-11-01 (58 years ago)
Launch vehicle
Unknown
Launch site
Tyuratam Missile And Space Complex (TTMTR)
Object type
Payload
Rocket body
Debris
Shape & HBR
Unknown shape, 0.1 m
Radar Cross Section
Medium (>0.1 m² and <1 m²)

Expand to show TLE details & history
Last TLE update: 15 hours ago

TLE from 15 hours ago
0 COSMOS 252 DEB *
1 03901U 68097BN  26174.92334005  .00000205  00000-0  22631-3 0  9993
2 03901  61.2782 147.1465 0806950 248.7299 102.5719 12.96004566678418
Epoch: 2026-06-23T22:09Z
TLE epoch observation values (Epoch: 2026-06-23T22:09:36.580Z)
Latitude
0.00003°
Longitude
-97.34384°
Altitude
1,459.891 km
Speed
7.049 km/s
True Right ascension
09h 48m 35s
True Declination
0° 00' 00"
Sunlit
Object was in daylight at epoch
Visualization orbit readout
Latitude
Unknown
Longitude
Unknown
Altitude
Unknown
Speed
Unknown
Apparent Right ascension
Unknown
Apparent Declination
Unknown
Sunlit
N/A
Visualization observer readout
Local Sidereal Time
00:15:21
Azimuth
Unknown
Elevation
Unknown
Doppler factor
Unknown
Orbital elements
Apogee altitude
1,894.62 km
Perigee altitude
659.174 km
Semi-major axis
7,655.034 km
Eccentricity
0.0807
Inclination
61.2782°
RAAN
147.1465°
Arg. of periapsis
248.7299°
True anomaly
111.36852°
Mean anomaly
102.5719°
Eccentric anomaly
106.99351°
Mean motion
3.24058 °/min
Orbital period
111.09 mins
BSTAR
0.00022631
Loading maneuver chart data...
Computing Atmospheric mass density...

Documentation

Showing up to 5 results
|